RÉSULTATS
TVTC 2019

results_logo
Scratch 5 km nordique Féminin 5 km nordique Masculin 5 km nordique Catég. 5 km nordique
Scratch 12 km nordique Féminin 12 km nordique Masculin 12 km nordique Catég. 12 km nordique
Scratch 5 km Féminin 5 km Masculin 5 km Catég. 5 km
Scratch 12 km
Féminin 12 km
Masculin 12 km Catég. 12 km
Scratch 24 km Féminin 24 km Masculin 24 km Catég. 24 km
Statistiques
Temps officiel moyen : 02:08:39
(masc. 02:16:45 / fém. 01:49:03)
Finishers : 6384 dont 4519 masc. (71%) / 1865 fém. (29%)
Licenciés : 1353 (21 %)
Pour toute question concernant votre temps de course, cliquez ici
Class./sexeNom de famille/PrénomTempsMoy.Doss.Nom du groupe/club ou entrepriseCatégorieSexePaysNuméro de licenceDiplômePartagez !
1SAVARIN Isabell01:03:0411.42425LE SOUFFLE D'ORGERUSM1FFRA1338083
2PANCHE Nathalie01:04:1611.20390VERNEUIL ACM1FFRA1810522
3TAÏBI Judith01:04:3011.16443M1FFRA
4JOUAN Élise01:05:2711.00325SEFFRA
5HIBON Rachel01:05:2911.00313SEFFRA
6PROUTHEAU Magali01:06:2310.85406PIMOSS TEAMM1FFRA
7VAYRAC Evelyne01:06:2810.83459S/L CLUB ATHLETISME JEUNESSEM2FFRA1809479
8RENAUD Géraldine01:07:3310.66415BUDY WALLINSM1FFRA
9TAINGUY Noémie01:10:0710.27440OUI CANSEFFRA
10JIQUEL Alizée01:10:2310.23322JIQUELESFFRA
11OROSCO Claire01:10:5710.15389M1FFRA
12BRIDON Dolorès01:11:4010.05208ANDRESY ATHLETISMEM1FFRA
13MOREAU Aurelie01:11:5110.02378M1FFRA
14HRISTOVA Raya01:11:5710.01317SEFFRA
15DUBOC Tiffany01:12:119.97264SEFFRA
16NUSSLI Anais01:12:499.89388M1FFRA
17LE TENO Beatrice01:13:289.80349STADE FRANCAIS TRIATHLONM2FFRAA01732C
18POUJOL Sophie01:13:299.80404M1FFRA
19ANIOT Stephanie01:13:559.74467M1FFRA
20MONNOT Emily01:13:569.74376M1FFRA
21PLANKEELE Marie01:14:039.72400SEFFRA
22CARRE Elise01:14:379.65219SEFFRA
23STIEBITZ Valerie01:14:559.61437LE SOUFFLE D'ORGERUSM2FFRA1808740
24TASSIN Delphine01:15:109.58442LE SOUFFLE D'ORGERUSSEFFRA
25NAVIER Alizee01:15:249.55384SO HOUILLESSEFFRA1664234
26GOSETTO Nathalie01:16:139.45289SEFFRA
27CHEVRIER Estelle01:16:259.42228SLHM1FFRA
28JOLY Laurie01:16:479.38324SEFFRA
29BOUCHERON Elisabeth01:16:529.37194RDN ISSYM2FFRA
30MEILLAND Aurelia01:16:599.35367OCLCTICM1FFRA
31JUVIGNY Elise01:17:009.35327SEFFRA
32ETCHEPARE Beatrice01:17:009.35271M2FFRA
33GUITTARD Alexandra01:17:149.32304ALEX-ERICM1FFRA
34KREBS Lucile01:17:229.31331LES KREBS D'HOUILLESM1FFRA
35VAREIRO Elodie01:17:339.28455SEFFRA
36TOUCHAIS Emilie01:17:419.27450SEFFRA
37HERSANT Stéphanie01:17:539.24311M1FFRA
38BARBARIN Alix01:18:089.22172BARBARINCAFFRAA88859C
39FRESQUET Mathilde01:18:409.15281GRATADOUCAFFRA
40VUILLEMIN Aude01:19:209.08462M1FFRA
41DIDELOT Alexandra01:19:229.07259VACM1FFRA1784903
42COUGARD Caroline01:19:409.04241COUGARDM1FFRA
43CREPIN Delphine01:19:469.03242SEFFRA
44BARAT Corinne01:19:559.01171KOUROZESSARTSM2FFRA
45ROMANET Mathilde01:19:589.00419CAFFRA
46POIGNAND Catherine01:21:108.87401SEFFRA
47CHARLEY GROSJEAN Julie01:21:218.85221GROSJEANSEFFRA
48VATIN Marielle01:21:518.80457SEFFRA
49BOUDOU Isabelle01:22:078.77198ASB YVELINESM1FFRA1847060
50HAPDEY Maureen01:22:088.77469SEFFRA
51MENGIN Caroline01:22:098.76368VERNEUIL ACM1FFRA2164413
52MINVIELLE Laurence01:22:108.76373VERNEUIL ACM2FFRA1388620
53MUSSEAU Coralie01:22:248.74383KOUROZESSARTSM1FFRA
54HUSSON Sophie01:22:308.73318PATATESM1FFRA
55TOUCHART Karine01:22:338.72486M1FFRA
56PÉREZ Esther01:22:528.69409OXYGENE PSASEFFRA
57LACOMBE Joëlle01:23:008.67334M2FFRA
58MARTIN Cathy01:23:078.66365VERNEUIL ACM1FFRA1784989
59BRESOLES Elise01:23:138.65205SEFFRA
60LASBLEIZ Julie01:23:518.59342CIVCSEFFRA
61CHARRON Virginie01:23:528.59223M1FFRA
62FERRON Johanne01:23:588.57278TEAM FERRONSEFFRA
63LE BIHAN Claire01:24:058.56346SEFFRA
64TITI Bohdana01:24:408.50449CIVCM1FFRA
65TRAVER Nathalie01:25:088.46451SLHM1FFRA
66PORCHERON Maud01:25:368.41403CIVCM1FFRA
67BILLARDEY Marion01:25:518.39187M1FFRA
68BAUVE Laetitia01:25:538.38178M1FFRA
69TRUJILLO Christel01:26:468.30453M2FFRA
70DAVID Brigitte01:26:498.29249ANDRESY ATHLETISMEM3FFRA1623669
71KRAKUS Carole01:26:548.29330SEFFRA
72CORION Carole01:26:558.28234SLHM1FFRA
73BATARIERE Marie-Laure01:27:048.27177M1FFRA
74BANH Anne01:27:278.23170SEFFRA
75GUISLAIN Cécile01:27:428.21303M1FFRA
76GUERIN Sandrine01:27:438.21297M1FFRA
77SIMONNET Florence01:28:098.17428KOUROZESSARTSM2FFRA
78DEWOLF Dominique01:28:218.15258S/L CLUB ATHLETISME JEUNESSEM1FFRA1912870
79BARBARIN Anne Carole01:29:198.06173BARBARINM2FFRA
80LE BERRIGAUD Christelle01:29:258.05345KOUROZESSARTSM1FFRA
81SMITH Anais01:30:477.93430SEFFRA
82BÉRENGER Marie01:30:477.93214SEFFRA
83SACCO Shirley01:31:167.89422M1FFRA
84CHASLES Ludivine01:31:357.86225TEAM CHASLESM1FFRA
85COUARAN Audrey01:31:357.86238COUARANSEFFRA
86COLOMBO Sandra01:31:357.86233SAFRAN AIRCRAFT ENGINEM1FFRA
87BREANT Sandrine01:33:117.73204VERNEUIL ACM1FFRA1983005
88CHETIVAUX Marie01:33:157.72227MALIENSEFFRA
89HOSTEIN Isabelle01:33:167.72315HOSTEINM2FFRA
90COFFINEAU Edith01:33:317.70231SO HOUILLESM2FFRA1465772
91CARON Angèle01:35:007.58475M1FFRA
92FEILLEL Caroline01:36:557.43275JACQUIE ET MICHEL TEAMM1FFRA
93BELLEC Marielle01:38:327.31182ES RENAULTM2FFRA
94DUPONT Audrey01:40:547.14268JACQUIE ET MICHEL TEAMSEFFRA
95CHARPENTIER Isabelle01:42:507.00222ES RENAULTM2FFRA
96FAYE Flore01:45:416.81273DUBOISSEFFRA
97DUBOIS Veronique01:45:426.81265DUBOISM1FFRA
98DISSAUX Cathy01:45:426.81260DUBOISM1FFRA
logo_onsinscrit